• In Austria
  • List of Countries
  • For 7 days
  • Water Temperature
  • Satellite Maps
  • Weather Map
  • News
  • Weather Widgets
  • user-avatar
    Login

    Hourly Weather Brisbane

    Today, 17 August, Friday

    Time Temperature Precipitation Wind Pressure Humidity
    00:00 +17°C° 0 mm 2 mps 758 mmHg 32%
    01:00 +16°C° 0 mm 2 mps 758 mmHg 33%
    02:00 +15°C° 0 mm 2 mps 758 mmHg 34%
    03:00 +15°C° 0 mm 2 mps 758 mmHg 34%
    04:00 +15°C° 0 mm 2 mps 758 mmHg 33%
    05:00 +15°C° 0 mm 2 mps 758 mmHg 34%
    06:00 +15°C° 0 mm 2 mps 758 mmHg 34%
    07:00 +15°C° 0 mm 2 mps 759 mmHg 35%
    08:00 +18°C° 0 mm 2 mps 759 mmHg 30%
    09:00 +23°C° 0 mm 2 mps 759 mmHg 26%
    10:00 +26°C° 0 mm 2 mps 759 mmHg 21%
    11:00 +27°C° 0 mm 2 mps 758 mmHg 21%
    12:00 +29°C° 0 mm 3 mps 758 mmHg 20%
    13:00 +30°C° 0 mm 3 mps 757 mmHg 20%
    14:00 +30°C° 0 mm 3 mps 757 mmHg 21%
    15:00 +29°C° 0 mm 4 mps 757 mmHg 22%
    16:00 +29°C° 0 mm 4 mps 757 mmHg 24%
    17:00 +26°C° 0 mm 3 mps 757 mmHg 29%
    18:00 +24°C° 0 mm 3 mps 757 mmHg 33%
    19:00 +21°C° 0 mm 2 mps 758 mmHg 38%
    20:00 +20°C° 0 mm 2 mps 758 mmHg 40%
    21:00 +19°C° 0 mm 2 mps 759 mmHg 42%
    22:00 +18°C° 0 mm 2 mps 759 mmHg 43%
    23:00 +17°C° 0 mm 3 mps 759 mmHg 46%

    Tomorrow, 18 August, Saturday

    Time Temperature Precipitation Wind Pressure Humidity
    00:00 +16°C° 0 mm 3 mps 759 mmHg 50%
    01:00 +16°C° 0 mm 3 mps 760 mmHg 53%
    02:00 +14°C° 0 mm 3 mps 760 mmHg 54%
    03:00 +14°C° 0 mm 2 mps 760 mmHg 56%
    04:00 +14°C° 0 mm 2 mps 759 mmHg 58%
    05:00 +14°C° 0 mm 2 mps 760 mmHg 57%
    06:00 +14°C° 0 mm 2 mps 760 mmHg 56%
    07:00 +14°C° 0 mm 2 mps 761 mmHg 56%
    08:00 +17°C° 0 mm 2 mps 761 mmHg 47%
    09:00 +20°C° 0 mm 2 mps 761 mmHg 38%
    10:00 +24°C° 0 mm 2 mps 761 mmHg 29%
    11:00 +26°C° 0 mm 3 mps 760 mmHg 26%
    12:00 +27°C° 0 mm 3 mps 759 mmHg 23%
    13:00 +29°C° 0 mm 4 mps 758 mmHg 20%
    14:00 +29°C° 0 mm 4 mps 758 mmHg 20%
    15:00 +28°C° 0 mm 4 mps 757 mmHg 21%
    16:00 +28°C° 0 mm 5 mps 757 mmHg 22%
    17:00 +26°C° 0 mm 4 mps 757 mmHg 27%
    18:00 +22°C° 0 mm 4 mps 758 mmHg 31%
    19:00 +20°C° 0 mm 3 mps 758 mmHg 36%
    20:00 +19°C° 0 mm 3 mps 759 mmHg 34%
    21:00 +19°C° 0 mm 4 mps 759 mmHg 33%
    22:00 +18°C° 0 mm 4 mps 760 mmHg 31%
    23:00 +17°C° 0 mm 4 mps 760 mmHg 33%

    Day after tomorrow, 19 August, Sunday

    Time Temperature Precipitation Wind Pressure Humidity
    00:00 +17°C° 0 mm 4 mps 760 mmHg 34%
    01:00 +15°C° 0 mm 4 mps 760 mmHg 36%
    02:00 +14°C° 0 mm 4 mps 760 mmHg 40%
    03:00 +14°C° 0 mm 5 mps 760 mmHg 44%
    04:00 +13°C° 0 mm 5 mps 759 mmHg 48%
    05:00 +13°C° 0 mm 5 mps 760 mmHg 48%
    06:00 +12°C° 0 mm 4 mps 761 mmHg 47%
    07:00 +12°C° 0 mm 4 mps 761 mmHg 47%
    08:00 +14°C° 0 mm 5 mps 761 mmHg 40%
    09:00 +15°C° 0 mm 5 mps 761 mmHg 32%
    10:00 +17°C° 0 mm 6 mps 761 mmHg 25%
    11:00 +19°C° 0 mm 6 mps 760 mmHg 23%
    12:00 +20°C° 0 mm 6 mps 760 mmHg 20%
    13:00 +21°C° 0 mm 7 mps 759 mmHg 18%
    14:00 +21°C° 0 mm 7 mps 759 mmHg 18%
    15:00 +20°C° 0 mm 7 mps 758 mmHg 18%
    16:00 +20°C° 0 mm 7 mps 758 mmHg 18%
    17:00 +17°C° 0 mm 7 mps 759 mmHg 21%
    18:00 +15°C° 0 mm 7 mps 760 mmHg 23%
    19:00 +14°C° 0 mm 7 mps 760 mmHg 25%
    20:00 +12°C° 0 mm 7 mps 761 mmHg 28%
    21:00 +11°C° 0 mm 7 mps 761 mmHg 31%
    22:00 +11°C° 0 mm 7 mps 762 mmHg 33%
    23:00 +10°C° 0 mm 7 mps 761 mmHg 35%

    20 August, Monday

    Time Temperature Precipitation Wind Pressure Humidity
    00:00 +10°C° 0 mm 7 mps 761 mmHg 36%
    01:00 +9°C° 0 mm 7 mps 761 mmHg 37%
    02:00 +9°C° 0 mm 7 mps 761 mmHg 38%
    03:00 +8°C° 0 mm 7 mps 761 mmHg 39%
    04:00 +8°C° 0 mm 6 mps 761 mmHg 40%
    05:00 +8°C° 0 mm 6 mps 761 mmHg 42%
    06:00 +8°C° 0 mm 6 mps 762 mmHg 43%
    07:00 +8°C° 0 mm 6 mps 762 mmHg 45%
    08:00 +10°C° 0 mm 6 mps 762 mmHg 39%
    09:00 +14°C° 0 mm 5 mps 762 mmHg 33%
    10:00 +16°C° 0 mm 5 mps 762 mmHg 27%
    11:00 +19°C° 0 mm 4 mps 761 mmHg 23%
    12:00 +20°C° 0 mm 4 mps 761 mmHg 20%
    13:00 +22°C° 0 mm 4 mps 760 mmHg 16%
    14:00 +22°C° 0 mm 3 mps 760 mmHg 15%
    15:00 +22°C° 0 mm 3 mps 760 mmHg 15%
    16:00 +22°C° 0 mm 3 mps 760 mmHg 14%
    17:00 +20°C° 0 mm 3 mps 760 mmHg 19%
    18:00 +18°C° 0 mm 3 mps 761 mmHg 23%
    19:00 +15°C° 0 mm 2 mps 762 mmHg 28%
    20:00 +14°C° 0 mm 2 mps 762 mmHg 30%
    21:00 +13°C° 0 mm 2 mps 763 mmHg 32%
    22:00 +12°C° 0 mm 2 mps 763 mmHg 34%
    23:00 +12°C° 0 mm 2 mps 763 mmHg 35%

    21 August, Tuesday

    Time Temperature Precipitation Wind Pressure Humidity
    00:00 +10°C° 0 mm 3 mps 763 mmHg 36%
    01:00 +9°C° 0 mm 3 mps 763 mmHg 38%
    02:00 +9°C° 0 mm 3 mps 763 mmHg 39%
    03:00 +8°C° 0 mm 3 mps 762 mmHg 40%
    04:00 +8°C° 0 mm 3 mps 762 mmHg 41%
    05:00 +8°C° 0 mm 2 mps 763 mmHg 41%
    06:00 +8°C° 0 mm 2 mps 763 mmHg 41%
    07:00 +8°C° 0 mm 2 mps 764 mmHg 40%
    08:00 +13°C° 0 mm 2 mps 764 mmHg 34%
    09:00 +17°C° 0 mm 2 mps 763 mmHg 28%
    10:00 +21°C° 0 mm 1 mps 763 mmHg 22%
    11:00 +22°C° 0 mm 1 mps 762 mmHg 21%
    12:00 +23°C° 0 mm 2 mps 762 mmHg 19%
    13:00 +24°C° 0 mm 2 mps 761 mmHg 18%
    14:00 +24°C° 0 mm 2 mps 760 mmHg 20%
    15:00 +24°C° 0 mm 3 mps 760 mmHg 22%
    16:00 +22°C° 0 mm 4 mps 760 mmHg 24%
    17:00 +20°C° 0 mm 4 mps 760 mmHg 32%
    18:00 +18°C° 0 mm 4 mps 761 mmHg 40%
    19:00 +14°C° 0 mm 4 mps 761 mmHg 48%
    20:00 +14°C° 0 mm 3 mps 762 mmHg 47%
    21:00 +13°C° 0 mm 3 mps 762 mmHg 46%
    22:00 +12°C° 0 mm 3 mps 762 mmHg 45%
    23:00 +11°C° 0 mm 3 mps 762 mmHg 43%

    22 August, Wednesday

    Time Temperature Precipitation Wind Pressure Humidity
    00:00 +10°C° 0 mm 3 mps 762 mmHg 41%
    01:00 +9°C° 0 mm 3 mps 762 mmHg 38%
    02:00 +9°C° 0 mm 3 mps 762 mmHg 38%
    03:00 +9°C° 0 mm 3 mps 762 mmHg 39%
    04:00 +8°C° 0 mm 3 mps 762 mmHg 39%
    05:00 +8°C° 0 mm 3 mps 763 mmHg 40%
    06:00 +9°C° 0 mm 3 mps 763 mmHg 40%
    07:00 +9°C° 0 mm 3 mps 764 mmHg 41%
    08:00 +12°C° 0 mm 3 mps 764 mmHg 35%
    09:00 +16°C° 0 mm 2 mps 764 mmHg 29%
    10:00 +20°C° 0 mm 2 mps 764 mmHg 23%
    11:00 +21°C° 0 mm 2 mps 763 mmHg 21%
    12:00 +24°C° 0 mm 2 mps 762 mmHg 19%
    13:00 +25°C° 0 mm 1 mps 762 mmHg 17%
    14:00 +24°C° 0 mm 2 mps 762 mmHg 20%
    15:00 +24°C° 0 mm 2 mps 762 mmHg 22%
    16:00 +22°C° 0 mm 3 mps 761 mmHg 24%
    17:00 +20°C° 0 mm 3 mps 762 mmHg 35%
    18:00 +18°C° 0 mm 3 mps 763 mmHg 47%
    19:00 +16°C° 0 mm 3 mps 763 mmHg 58%
    20:00 +14°C° 0 mm 3 mps 764 mmHg 65%
    21:00 +14°C° 0 mm 2 mps 764 mmHg 71%
    22:00 +14°C° 0 mm 2 mps 765 mmHg 77%
    23:00 +13°C° 0 mm 2 mps 765 mmHg 80%
    Show more